TimeEST,TemperatureF,Dew PointF,Humidity,Sea Level PressureIn,VisibilityMPH,Wind Direction,Wind SpeedMPH,Gust SpeedMPH,PrecipitationIn,Events,Conditions,WindDirDegrees,DateUTC
12:55 AM,36.5,30.6,79,30.07,10.0,West,4.6,-,N/A,,Clear,280,2013-02-06 05:55:00
1:55 AM,35.1,30.6,84,30.09,10.0,NW,4.6,-,N/A,,Clear,310,2013-02-06 06:55:00
2:55 AM,32.9,28.9,85,30.11,10.0,WNW,3.5,-,N/A,,Clear,300,2013-02-06 07:55:00
3:55 AM,29.7,27.9,93,30.13,9.0,NNW,5.8,-,N/A,,Clear,330,2013-02-06 08:55:00
4:55 AM,30.7,28.9,93,30.14,10.0,Calm,Calm,-,N/A,,Clear,0,2013-02-06 09:55:00
5:55 AM,26.4,25.0,94,30.17,5.0,Calm,Calm,-,N/A,,Clear,0,2013-02-06 10:55:00
6:55 AM,27.0,25.7,95,30.18,4.0,Calm,Calm,-,N/A,,Clear,0,2013-02-06 11:55:00
7:37 AM,24.8,23.0,93,30.18,2.0,SW,5.8,-,N/A,,Clear,220,2013-02-06 12:37:00
7:55 AM,24.4,23.2,95,30.22,2.0,West,1.2,-,N/A,,Partly Cloudy,280,2013-02-06 12:55:00
8:34 AM,28.4,26.6,93,30.19,3.0,WNW,1.2,-,N/A,,Partly Cloudy,290,2013-02-06 13:34:00
8:55 AM,30.7,29.8,96,30.22,4.0,NNW,4.6,-,N/A,,Clear,330,2013-02-06 13:55:00
9:50 AM,32.0,30.2,93,30.22,10.0,NNW,6.9,-,N/A,,Mostly Cloudy,340,2013-02-06 14:50:00
9:55 AM,33.6,29.7,85,30.25,5.0,NNW,6.9,-,N/A,,Mostly Cloudy,340,2013-02-06 14:55:00
10:55 AM,36.5,30.9,80,30.25,7.0,NE,5.8,-,N/A,,Mostly Cloudy,40,2013-02-06 15:55:00
11:55 AM,39.0,24.8,57,30.23,7.0,NE,5.8,-,N/A,,Mostly Cloudy,40,2013-02-06 16:55:00
12:05 PM,-9999,-9999,N/A,-9999,-9999.0,North,-9999.0,-,N/A,,Overcast,0,2013-02-06 17:05:00
12:55 PM,39.9,24.1,53,30.22,7.0,NE,3.5,-,N/A,,Overcast,50,2013-02-06 17:55:00
1:38 PM,41.0,28.4,61,30.21,7.0,NE,3.5,-,N/A,,Scattered Clouds,40,2013-02-06 18:38:00
1:55 PM,43.0,31.8,65,30.23,10.0,Variable,1.2,-,N/A,,Scattered Clouds,0,2013-02-06 18:55:00
2:55 PM,44.8,32.2,61,30.22,10.0,WNW,5.8,-,N/A,,Partly Cloudy,290,2013-02-06 19:55:00
3:55 PM,45.0,31.1,58,30.22,10.0,Calm,Calm,-,N/A,,Clear,0,2013-02-06 20:55:00
4:55 PM,44.8,31.8,60,30.19,10.0,NNE,8.1,-,N/A,,Clear,20,2013-02-06 21:55:00
5:55 PM,41.7,30.9,66,30.19,10.0,NNE,6.9,-,N/A,,Clear,20,2013-02-06 22:55:00
6:55 PM,38.5,29.5,70,30.22,10.0,NNE,4.6,-,N/A,,Clear,20,2013-02-06 23:55:00
7:55 PM,36.5,28.9,74,30.22,10.0,NNE,5.8,-,N/A,,Clear,30,2013-02-07 00:55:00
8:55 PM,36.9,29.1,74,30.21,10.0,Calm,Calm,-,N/A,,Clear,0,2013-02-07 01:55:00
9:55 PM,37.0,29.8,75,30.21,10.0,ENE,6.9,-,N/A,,Clear,70,2013-02-07 02:55:00
10:55 PM,36.5,29.7,76,30.19,10.0,ENE,5.8,-,N/A,,Clear,70,2013-02-07 03:55:00
11:55 PM,36.1,29.3,76,30.15,10.0,ENE,4.6,-,N/A,,Mostly Cloudy,60,2013-02-07 04:55:00